Regional Weather Roundup
Issued by NWS Charleston, SC

Current Version | Previous Version | Text Only | Print | Product List | Glossary Off
Versions: 1 2 3 4 5 6 7 8 9 10 11 12 13 14 15 16 17 18 19 20 21 22 23 24 25 26 27 28 29 30 31 32 33 34 35 36 37 38 39 40 41 42 43 44 45 46 47 48 49 50
000 ASUS42 KCHS 041728 RWRCHS REGIONAL WEATHER ROUNDUP NATIONAL WEATHER SERVICE CHARLESTON SC 100 PM EDT WED MAY 04 2016 NOTE: "FAIR" INDICATES FEW OR NO CLOUDS BELOW 12,000 FEET WITH NO SIGNIFICANT WEATHER AND/OR OBSTRUCTIONS TO VISIBILITY. NOT ALL STATIONS ARE QUALITY CONTROLLED. USE DATA WITH CAUTION... ESPECIALLY DEWPOINT OBSERVATIONS. SCZ027-030-031-034>040-042>050-041800- ...SOUTHEAST SOUTH CAROLINA... CITY SKY/WX TMP DP RH WIND PRES REMARKS N CHARLESTON MOSUNNY 79 53 40 W9 29.69F WATERFRONT PRK N/A 75 57 53 W7 29.69S MOUNT PLEASANT FAIR 79 55 44 W10G18 29.68F JOHNS ISLAND FAIR 79 57 47 W10 29.68F PINOPOLIS N/A 75 55 50 W12 29.64F MONCKS CORNER FAIR 75 45 33 W7 29.67F SUMMERVILLE FAIR 79 52 38 W7 29.70F BEAUFORT MCAS MOSUNNY 78 53 41 W10G21 29.71F BEAUFORT ARPT FAIR 79 52 38 W16G24 29.70F HILTON HEAD IS SUNNY 81 57 44 W8G18 29.73F WALTERBORO SUNNY 79 46 31 W12G18 29.70F ALLENDALE FAIR 75 48 38 SW10 29.72F ...SOUTHERN MIDLANDS AND PEE DEE... CITY SKY/WX TMP DP RH WIND PRES REMARKS GEORGETOWN FAIR 79 54 41 W12 29.68F KINGSTREE PTSUNNY 73 54 49 W9 29.67F ORANGEBURG SUNNY 76 46 34 W8G17 29.71F BARNWELL FAIR 79 48 34 W13G18 29.73F AIKEN FAIR 72 46 40 SW10G16 29.76F MANNING FAIR 75 52 43 W13G18 29.68F COLUMBIA MOSUNNY 74 49 41 W7 29.70F SUMTER PTSUNNY 73 52 46 W7 29.67F FLORENCE MOSUNNY 75 53 46 NW9 29.68F MYRTLE BEACH PTSUNNY 79 57 47 W10 29.68F N MYRTLE BEACH MOSUNNY 77 64 64 S15G21 29.65F $$ GAZ063-065-086>088-099>101-113>116-118-119-134>141-150-041800- ...SOUTHEAST GEORGIA... CITY SKY/WX TMP DP RH WIND PRES REMARKS SAVANNAH ARPT MOSUNNY 78 52 40 NW18G26 29.73F HUNTER AAF SUNNY 79 59 50 NW16 29.69F FORT STEWART MOSUNNY 77 52 41 NW15G21 29.70F STATESBORO SUNNY 77 51 40 W13 29.74F SYLVANIA SUNNY 76 50 39 NW13 29.73F CLAXTON FAIR 75 53 45 SW10G20 29.75F ...CSRA...CENTRAL AND FAR SOUTHEAST GEORGIA... CITY SKY/WX TMP DP RH WIND PRES REMARKS THOMSON MOSUNNY 73 47 38 W12 29.80F AUGUSTA-BUSH SUNNY 74 45 35 W14G20 29.74F AUGUSTA-DANIEL SUNNY 73 40 30 W13G21 29.76F SWAINSBORO FAIR 73 45 35 W9 29.77F VIDALIA SUNNY 73 46 38 NW9 29.76F EASTMAN FAIR 73 47 38 NW9 29.81F HAZLEHURST FAIR 76 47 36 W5 29.76F ALMA SUNNY 75 52 44 NW15G21 29.77F WAYCROSS MOSUNNY 76 55 47 N6 29.75F JESUP FAIR 79 55 44 W10G21 29.75F BAXLEY FAIR 77 50 38 W15 29.75F BRUNSWICK MOSUNNY 82 61 47 NW8G17 29.74F SAINT SIMONS PTSUNNY 77 59 53 VRB6 29.75F $$ SCZ027-028-034-036>038-045-046-048>050-GAZ119-141-041800- ...LAKE AND SUPPLEMENTAL COASTAL OBSERVATIONS... STATION/POSITION TIME TEMP WIND PRES WAVE SWELL AIR SEA DIR/SP/G HT/PER HT/PER/DIR (UTC) (F) (DEG/KT/KT) (MB) (FT/S) (FT/S/D) WINYAH BAY 1600 75 270/ 7 1005.0S LAKE MURRAY 1700 69 260/ 9/ 11 1005.4F ACE BASIN NERRS 1600 75 270/ 4 1007.0S FORT PULASKI 1700 74 75 290/ 12/ 15 1006.6F SAPELO ISLAND 1700 76 270/ 7 1007.0F $$ ANZ835-935-AMZ111-154-330-350-352-354-370-450-454-472-041800- ...C-MAN AND BUOY OBSERVATIONS... STATION/POSITION TIME TEMP WIND PRES WAVE SWELL AIR SEA DIR/SP/G HT/PER HT/PER/DIR (UTC) (F) (DEG/KT/KT) (MB) (FT/S) (FT/S/D) BUOY 41004 1650 72 74 270/ 12/ 16 1005.5F 3/ 7 2/ 7 BUOY 41008 NOT AVBL FOLLY BEACH CMAN 1700 77 250/ 8/ 10 1005.5F CAPERS NEARSHORE 1708 73 72 250/ 10/ 14 1005.2F FRIPP NEARSHORE 1708 73 72 280/ 12/ 16 1005.4F STATION/POSITION TIME TEMP WIND PRES WAVE SWELL AIR SEA DIR/SP/G HT/PER HT/PER/DIR (UTC) (F) (DEG/KT/KT) (MB) (FT/S) (FT/S/D) 5E ST. MARYS GA 1621 72 N/A 2/10 FRYING PAN BUOY 1700 72 73 250/ 14/ 16 1004.1F BUOY 41025 1650 69 71 240/ 16/ 19 1003.8F 4/ 7 2/170/ 7 CAPE LOOKOUT NC 1700 67 180/ 10/ 11 1003.4F BUOY 41002 1650 72 74 150/ 16/ 21 1007.7F 5/ 7 2/120/ 9 BUOY 41010 1620 78 78 260/ 17/ 23 1009.0F ST AUGUSTINE FL 1700 69 71 250/ 8/ 10 1008.6F $$

USA.gov is the U.S. government's official web portal to all federal, state and local government web resources and services.